Time,TemperatureF,DewpointF,PressureIn,WindDirection,WindDirectionDegrees,WindSpeedMPH,WindSpeedGustMPH,Humidity,HourlyPrecipIn,Conditions,Clouds,dailyrainin,SoftwareType,DateUTC
2013-01-10 00:00:00,34.5,29.3,30.47,NW,310,0.0,0.0,81,0.00,,,0.04,Wunderground v.1.15,2013-01-10 05:00:00,
2013-01-10 00:01:00,34.5,29.3,30.47,NW,310,0.0,0.0,81,0.00,,,0.00,Wunderground v.1.15,2013-01-10 05:01:00,
2013-01-10 00:02:00,34.4,29.2,30.47,NW,311,0.0,0.0,81,0.00,,,0.00,Wunderground v.1.15,2013-01-10 05:02:00,
2013-01-10 00:07:00,34.2,29.3,30.47,NW,322,0.0,0.0,82,0.00,,,0.00,Wunderground v.1.15,2013-01-10 05:07:00,
2013-01-10 00:13:00,34.0,29.1,30.47,NW,322,0.0,0.0,82,0.00,,,0.00,Wunderground v.1.15,2013-01-10 05:13:00,
2013-01-10 00:18:00,33.6,29.0,30.48,West,280,0.0,0.0,83,0.00,,,0.00,Wunderground v.1.15,2013-01-10 05:18:00,
2013-01-10 00:25:00,32.8,28.0,30.48,SSW,207,0.0,1.0,83,0.00,,,0.00,weatherlink.com 1.10,2013-01-10 05:25:00,
2013-01-10 00:31:00,32.2,27.9,30.49,SSW,207,0.0,0.0,84,0.00,,,0.00,Wunderground v.1.15,2013-01-10 05:31:00,
2013-01-10 00:37:00,31.7,28.0,30.49,SSW,206,0.0,0.0,86,0.00,,,0.00,Wunderground v.1.15,2013-01-10 05:37:00,
2013-01-10 00:44:00,31.4,27.7,30.49,South,170,0.0,0.0,86,0.00,,,0.00,Wunderground v.1.15,2013-01-10 05:44:00,
2013-01-10 00:49:00,31.5,28.1,30.49,SSW,198,0.0,1.0,87,0.00,,,0.00,Wunderground v.1.15,2013-01-10 05:49:00,
2013-01-10 00:54:00,31.6,28.0,30.50,SE,141,0.0,3.0,86,0.00,,,0.00,weatherlink.com 1.10,2013-01-10 05:54:00,
2013-01-10 00:59:00,31.3,27.6,30.50,SE,138,0.0,0.0,86,0.00,,,0.00,Wunderground v.1.15,2013-01-10 05:59:00,
2013-01-10 01:07:00,31.5,28.4,30.50,WSW,253,0.0,0.0,88,0.00,,,0.00,Wunderground v.1.15,2013-01-10 06:07:00,
2013-01-10 01:12:00,31.0,27.6,30.50,SE,132,0.0,1.0,87,0.00,,,0.00,Wunderground v.1.15,2013-01-10 06:12:00,
2013-01-10 01:17:00,30.7,27.6,30.51,SE,131,0.0,1.0,88,0.00,,,0.00,Wunderground v.1.15,2013-01-10 06:17:00,
2013-01-10 01:23:00,30.9,27.8,30.51,SE,131,0.0,0.0,88,0.00,,,0.00,Wunderground v.1.15,2013-01-10 06:23:00,
2013-01-10 01:29:00,30.7,27.6,30.51,SE,131,0.0,0.0,88,0.00,,,0.00,Wunderground v.1.15,2013-01-10 06:29:00,
2013-01-10 01:35:00,30.1,27.0,30.51,ESE,115,0.0,0.0,88,0.00,,,0.00,Wunderground v.1.15,2013-01-10 06:35:00,
2013-01-10 01:40:00,30.0,27.0,30.51,ESE,115,0.0,0.0,88,0.00,,,0.00,weatherlink.com 1.10,2013-01-10 06:40:00,
2013-01-10 01:45:00,29.6,26.8,30.50,ESE,116,0.0,0.0,89,0.00,,,0.00,Wunderground v.1.15,2013-01-10 06:45:00,
2013-01-10 01:51:00,29.2,26.4,30.51,ESE,115,0.0,0.0,89,0.00,,,0.00,Wunderground v.1.15,2013-01-10 06:51:00,
2013-01-10 01:57:00,29.0,26.4,30.51,ESE,113,0.0,0.0,90,0.00,,,0.00,Wunderground v.1.15,2013-01-10 06:57:00,
2013-01-10 02:03:00,28.8,26.5,30.51,ESE,113,0.0,0.0,91,0.00,,,0.00,Wunderground v.1.15,2013-01-10 07:03:00,
2013-01-10 02:09:00,28.5,26.2,30.51,ESE,113,0.0,0.0,91,0.00,,,0.00,Wunderground v.1.15,2013-01-10 07:09:00,
2013-01-10 02:14:00,28.3,26.0,30.51,ESE,113,0.0,0.0,91,0.00,,,0.00,Wunderground v.1.15,2013-01-10 07:14:00,
2013-01-10 02:20:00,27.8,25.5,30.51,ESE,113,0.0,0.0,91,0.00,,,0.00,Wunderground v.1.15,2013-01-10 07:20:00,
2013-01-10 02:26:00,27.7,26.0,30.51,ESE,113,0.0,0.0,92,0.00,,,0.00,weatherlink.com 1.10,2013-01-10 07:26:00,
2013-01-10 02:31:00,27.4,25.4,30.51,ESE,116,0.0,0.0,92,0.00,,,0.00,Wunderground v.1.15,2013-01-10 07:31:00,
2013-01-10 02:36:00,27.4,25.4,30.51,SE,128,0.0,0.0,92,0.00,,,0.00,Wunderground v.1.15,2013-01-10 07:36:00,
2013-01-10 02:42:00,27.5,25.5,30.51,SE,128,0.0,0.0,92,0.00,,,0.00,Wunderground v.1.15,2013-01-10 07:42:00,
2013-01-10 02:49:00,27.4,25.4,30.51,SE,128,0.0,0.0,92,0.00,,,0.00,Wunderground v.1.15,2013-01-10 07:49:00,
2013-01-10 02:54:00,27.2,25.2,30.51,SE,127,0.0,1.0,92,0.00,,,0.00,Wunderground v.1.15,2013-01-10 07:54:00,
2013-01-10 02:59:00,27.1,25.1,30.51,SE,127,0.0,0.0,92,0.00,,,0.00,Wunderground v.1.15,2013-01-10 07:59:00,
2013-01-10 03:06:00,27.3,25.5,30.51,SE,128,0.0,0.0,93,0.00,,,0.00,Wunderground v.1.15,2013-01-10 08:06:00,
2013-01-10 03:11:00,27.3,26.0,30.51,SE,127,0.0,0.0,93,0.00,,,0.00,weatherlink.com 1.10,2013-01-10 08:11:00,
2013-01-10 03:17:00,26.9,25.1,30.51,SE,127,0.0,0.0,93,0.00,,,0.00,Wunderground v.1.15,2013-01-10 08:17:00,
2013-01-10 03:23:00,26.7,24.9,30.51,SE,127,0.0,0.0,93,0.00,,,0.00,Wunderground v.1.15,2013-01-10 08:23:00,
2013-01-10 03:29:00,26.5,24.8,30.51,SE,127,0.0,0.0,93,0.00,,,0.00,Wunderground v.1.15,2013-01-10 08:29:00,
2013-01-10 03:36:00,26.1,24.4,30.51,SE,128,0.0,0.0,93,0.00,,,0.00,Wunderground v.1.15,2013-01-10 08:36:00,
2013-01-10 03:42:00,26.3,24.8,30.51,SE,129,0.0,0.0,94,0.00,,,0.00,Wunderground v.1.15,2013-01-10 08:42:00,
2013-01-10 03:48:00,26.2,24.7,30.51,SE,128,0.0,0.0,94,0.00,,,0.00,Wunderground v.1.15,2013-01-10 08:48:00,
2013-01-10 03:55:00,25.6,23.9,30.51,SE,128,0.0,0.0,93,0.00,,,0.00,Wunderground v.1.15,2013-01-10 08:55:00,
2013-01-10 04:01:00,25.5,24.0,30.51,SE,128,0.0,0.0,94,0.00,,,0.00,Wunderground v.1.15,2013-01-10 09:01:00,
2013-01-10 04:07:00,25.4,23.9,30.51,SE,127,0.0,0.0,94,0.00,,,0.00,Wunderground v.1.15,2013-01-10 09:07:00,
2013-01-10 04:12:00,25.4,23.9,30.51,SE,128,0.0,0.0,94,0.00,,,0.00,Wunderground v.1.15,2013-01-10 09:12:00,
2013-01-10 04:17:00,25.4,23.9,30.51,SE,128,0.0,0.0,94,0.00,,,0.00,Wunderground v.1.15,2013-01-10 09:17:00,
2013-01-10 04:22:00,25.4,23.9,30.51,SE,132,0.0,0.0,94,0.00,,,0.00,Wunderground v.1.15,2013-01-10 09:22:00,
2013-01-10 04:28:00,25.1,24.0,30.51,ESE,117,0.0,1.0,94,0.00,,,0.00,weatherlink.com 1.10,2013-01-10 09:28:00,
2013-01-10 04:33:00,25.3,23.8,30.51,ESE,120,0.0,0.0,94,0.00,,,0.00,Wunderground v.1.15,2013-01-10 09:33:00,
2013-01-10 04:39:00,25.1,23.6,30.51,ESE,120,0.0,0.0,94,0.00,,,0.00,Wunderground v.1.15,2013-01-10 09:39:00,
2013-01-10 04:44:00,25.3,23.8,30.51,ESE,120,0.0,0.0,94,0.00,,,0.00,Wunderground v.1.15,2013-01-10 09:44:00,
2013-01-10 04:49:00,25.1,23.6,30.51,ESE,120,0.0,0.0,94,0.00,,,0.00,Wunderground v.1.15,2013-01-10 09:49:00,
2013-01-10 04:56:00,24.6,23.1,30.51,ESE,120,0.0,0.0,94,0.00,,,0.00,Wunderground v.1.15,2013-01-10 09:56:00,
2013-01-10 05:01:00,24.5,23.0,30.51,ESE,120,0.0,0.0,94,0.00,,,0.00,Wunderground v.1.15,2013-01-10 10:01:00,
2013-01-10 05:06:00,24.7,23.2,30.51,ESE,120,0.0,0.0,94,0.00,,,0.00,Wunderground v.1.15,2013-01-10 10:06:00,
2013-01-10 05:11:00,24.8,23.6,30.51,ESE,120,0.0,0.0,95,0.00,,,0.00,Wunderground v.1.15,2013-01-10 10:11:00,
2013-01-10 05:17:00,25.0,23.8,30.52,ESE,120,0.0,0.0,95,0.00,,,0.00,Wunderground v.1.15,2013-01-10 10:17:00,
2013-01-10 05:22:00,24.8,23.6,30.52,ESE,120,0.0,0.0,95,0.00,,,0.00,Wunderground v.1.15,2013-01-10 10:22:00,
2013-01-10 05:28:00,24.6,23.0,30.52,ESE,120,0.0,0.0,95,0.00,,,0.00,weatherlink.com 1.10,2013-01-10 10:28:00,
2013-01-10 05:34:00,24.2,23.0,30.52,ESE,120,0.0,0.0,95,0.00,,,0.00,Wunderground v.1.15,2013-01-10 10:34:00,
2013-01-10 05:39:00,24.2,23.0,30.52,ESE,120,0.0,0.0,95,0.00,,,0.00,Wunderground v.1.15,2013-01-10 10:39:00,
2013-01-10 05:47:00,24.4,23.2,30.52,ESE,120,0.0,0.0,95,0.00,,,0.00,Wunderground v.1.15,2013-01-10 10:47:00,
2013-01-10 05:53:00,24.5,23.3,30.53,ESE,120,0.0,0.0,95,0.00,,,0.00,Wunderground v.1.15,2013-01-10 10:53:00,
2013-01-10 06:00:00,24.1,22.9,30.53,ESE,121,0.0,0.0,95,0.00,,,0.00,Wunderground v.1.15,2013-01-10 11:00:00,
2013-01-10 06:07:00,24.0,22.8,30.54,ESE,121,0.0,0.0,95,0.00,,,0.00,Wunderground v.1.15,2013-01-10 11:07:00,
2013-01-10 06:13:00,24.0,23.0,30.54,ESE,121,0.0,0.0,95,0.00,,,0.00,weatherlink.com 1.10,2013-01-10 11:13:00,
2013-01-10 06:19:00,23.9,22.7,30.55,ESE,121,0.0,0.0,95,0.00,,,0.00,Wunderground v.1.15,2013-01-10 11:19:00,
2013-01-10 06:24:00,23.8,22.6,30.54,ESE,122,0.0,0.0,95,0.00,,,0.00,Wunderground v.1.15,2013-01-10 11:24:00,
2013-01-10 06:30:00,23.9,23.0,30.55,ESE,122,0.0,0.0,95,0.00,,,0.00,weatherlink.com 1.10,2013-01-10 11:30:00,
2013-01-10 06:36:00,24.0,22.8,30.55,ESE,121,0.0,0.0,95,0.00,,,0.00,Wunderground v.1.15,2013-01-10 11:36:00,
2013-01-10 06:43:00,24.1,22.9,30.55,ESE,122,0.0,0.0,95,0.00,,,0.00,Wunderground v.1.15,2013-01-10 11:43:00,
2013-01-10 06:49:00,24.0,22.8,30.55,ESE,121,0.0,0.0,95,0.00,,,0.00,Wunderground v.1.15,2013-01-10 11:49:00,
2013-01-10 06:55:00,23.9,22.7,30.55,ESE,122,0.0,0.0,95,0.00,,,0.00,Wunderground v.1.15,2013-01-10 11:55:00,
2013-01-10 07:00:00,23.9,22.7,30.55,ESE,121,0.0,0.0,95,0.00,,,0.00,Wunderground v.1.15,2013-01-10 12:00:00,
2013-01-10 07:06:00,24.1,22.9,30.55,ESE,122,0.0,0.0,95,0.00,,,0.00,Wunderground v.1.15,2013-01-10 12:06:00,
2013-01-10 07:12:00,24.0,22.8,30.55,ESE,121,0.0,0.0,95,0.00,,,0.00,Wunderground v.1.15,2013-01-10 12:12:00,
2013-01-10 07:18:00,23.9,22.7,30.55,ESE,121,0.0,0.0,95,0.00,,,0.00,Wunderground v.1.15,2013-01-10 12:18:00,
2013-01-10 07:23:00,23.8,22.6,30.56,ESE,121,0.0,0.0,95,0.00,,,0.00,Wunderground v.1.15,2013-01-10 12:23:00,
2013-01-10 07:28:00,23.6,22.4,30.56,ESE,122,0.0,0.0,95,0.00,,,0.00,Wunderground v.1.15,2013-01-10 12:28:00,
2013-01-10 07:36:00,23.5,22.3,30.56,ESE,122,0.0,0.0,95,0.00,,,0.00,Wunderground v.1.15,2013-01-10 12:36:00,
2013-01-10 07:41:00,23.5,22.3,30.56,ESE,121,0.0,0.0,95,0.00,,,0.00,Wunderground v.1.15,2013-01-10 12:41:00,
2013-01-10 07:46:00,23.4,22.2,30.56,ESE,121,0.0,0.0,95,0.00,,,0.00,Wunderground v.1.15,2013-01-10 12:46:00,
2013-01-10 07:52:00,23.1,21.9,30.57,ESE,121,0.0,0.0,95,0.00,,,0.00,Wunderground v.1.15,2013-01-10 12:52:00,
2013-01-10 07:57:00,23.1,21.9,30.56,ESE,121,0.0,0.0,95,0.00,,,0.00,Wunderground v.1.15,2013-01-10 12:57:00,
2013-01-10 08:04:00,23.3,22.1,30.57,ESE,122,0.0,0.0,95,0.00,,,0.00,Wunderground v.1.15,2013-01-10 13:04:00,
2013-01-10 08:10:00,23.3,22.1,30.57,ESE,122,0.0,0.0,95,0.00,,,0.00,Wunderground v.1.15,2013-01-10 13:10:00,
2013-01-10 08:15:00,23.4,22.2,30.57,ESE,122,0.0,0.0,95,0.00,,,0.00,Wunderground v.1.15,2013-01-10 13:15:00,
2013-01-10 08:20:00,23.7,22.5,30.58,ESE,121,0.0,0.0,95,0.00,,,0.00,Wunderground v.1.15,2013-01-10 13:20:00,
2013-01-10 08:28:00,24.5,23.5,30.58,ESE,121,0.0,0.0,96,0.00,,,0.00,Wunderground v.1.15,2013-01-10 13:28:00,
2013-01-10 08:33:00,25.4,24.4,30.58,ESE,122,0.0,0.0,96,0.00,,,0.00,Wunderground v.1.15,2013-01-10 13:33:00,
2013-01-10 08:38:00,25.9,24.9,30.58,ESE,121,0.0,0.0,96,0.00,,,0.00,Wunderground v.1.15,2013-01-10 13:38:00,
2013-01-10 08:44:00,26.9,26.0,30.59,ESE,121,0.0,0.0,96,0.00,,,0.00,weatherlink.com 1.10,2013-01-10 13:44:00,
2013-01-10 08:50:00,27.7,26.7,30.58,ESE,121,0.0,0.0,96,0.00,,,0.00,Wunderground v.1.15,2013-01-10 13:50:00,
2013-01-10 08:55:00,28.6,27.6,30.58,ESE,121,0.0,0.0,96,0.00,,,0.00,Wunderground v.1.15,2013-01-10 13:55:00,
2013-01-10 09:00:00,29.4,28.4,30.58,ESE,122,0.0,0.0,96,0.00,,,0.00,Wunderground v.1.15,2013-01-10 14:00:00,
2013-01-10 09:06:00,29.3,28.0,30.58,ESE,121,0.0,0.0,95,0.00,,,0.00,Wunderground v.1.15,2013-01-10 14:06:00,
2013-01-10 09:11:00,30.2,28.9,30.58,ESE,121,0.0,0.0,95,0.00,,,0.00,Wunderground v.1.15,2013-01-10 14:11:00,
2013-01-10 09:17:00,31.2,29.7,30.58,ESE,122,0.0,0.0,94,0.00,,,0.00,Wunderground v.1.15,2013-01-10 14:17:00,
2013-01-10 09:23:00,31.8,30.0,30.59,SE,132,0.0,0.0,93,0.00,,,0.00,Wunderground v.1.15,2013-01-10 14:23:00,
2013-01-10 09:28:00,32.4,30.6,30.59,SE,132,0.0,0.0,93,0.00,,,0.00,Wunderground v.1.15,2013-01-10 14:28:00,
2013-01-10 09:33:00,32.6,30.5,30.59,SW,229,0.0,0.0,92,0.00,,,0.00,Wunderground v.1.15,2013-01-10 14:33:00,
2013-01-10 09:38:00,32.5,30.2,30.59,SW,229,0.0,0.0,91,0.00,,,0.00,Wunderground v.1.15,2013-01-10 14:38:00,
2013-01-10 09:43:00,33.0,30.7,30.59,SW,228,0.0,0.0,91,0.00,,,0.00,Wunderground v.1.15,2013-01-10 14:43:00,
2013-01-10 09:50:00,33.3,30.4,30.59,SW,228,0.0,0.0,89,0.00,,,0.00,Wunderground v.1.15,2013-01-10 14:50:00,
2013-01-10 09:55:00,33.4,30.5,30.59,WSW,240,0.0,0.0,89,0.00,,,0.00,Wunderground v.1.15,2013-01-10 14:55:00,
2013-01-10 10:00:00,34.2,31.3,30.59,ENE,70,0.0,2.0,89,0.00,,,0.00,Wunderground v.1.15,2013-01-10 15:00:00,
2013-01-10 10:06:00,35.0,30.9,30.58,ESE,118,1.0,3.0,85,0.00,,,0.00,Wunderground v.1.15,2013-01-10 15:06:00,
2013-01-10 10:12:00,35.4,30.8,30.58,ESE,110,1.0,1.0,83,0.00,,,0.00,Wunderground v.1.15,2013-01-10 15:12:00,
2013-01-10 10:18:00,35.6,30.3,30.58,East,91,0.0,1.0,81,0.00,,,0.00,Wunderground v.1.15,2013-01-10 15:18:00,
2013-01-10 10:23:00,35.7,30.4,30.58,East,93,0.0,0.0,81,0.00,,,0.00,Wunderground v.1.15,2013-01-10 15:23:00,
2013-01-10 10:28:00,36.0,30.4,30.59,ENE,63,0.0,1.0,80,0.00,,,0.00,Wunderground v.1.15,2013-01-10 15:28:00,
2013-01-10 10:33:00,36.3,30.1,30.59,East,86,1.0,2.0,78,0.00,,,0.00,Wunderground v.1.15,2013-01-10 15:33:00,
2013-01-10 10:40:00,36.6,30.1,30.59,East,94,1.0,4.0,77,0.00,,,0.00,Wunderground v.1.15,2013-01-10 15:40:00,
2013-01-10 10:45:00,36.9,30.0,30.59,WSW,255,1.0,2.0,76,0.00,,,0.00,Wunderground v.1.15,2013-01-10 15:45:00,
2013-01-10 10:50:00,37.3,30.1,30.59,NNE,33,1.0,1.0,75,0.00,,,0.00,Wunderground v.1.15,2013-01-10 15:50:00,
2013-01-10 15:25:00,42.7,30.2,30.46,South,173,3.0,9.0,61,0.00,,,0.00,Wunderground v.1.15,2013-01-10 20:25:00,
2013-01-10 15:31:00,42.2,29.7,30.47,East,101,4.0,6.0,61,0.00,,,0.00,Wunderground v.1.15,2013-01-10 20:31:00,
2013-01-10 15:37:00,41.8,29.7,30.47,SE,131,4.0,7.0,62,0.00,,,0.00,Wunderground v.1.15,2013-01-10 20:37:00,
2013-01-10 15:43:00,41.5,29.4,30.46,ESE,103,4.0,7.0,62,0.00,,,0.00,Wunderground v.1.15,2013-01-10 20:43:00,
2013-01-10 15:48:00,41.2,29.0,30.46,SE,134,7.0,13.0,62,0.00,,,0.00,weatherlink.com 1.10,2013-01-10 20:48:00,
2013-01-10 15:55:00,41.0,29.0,30.46,SE,131,5.0,7.0,62,0.00,,,0.00,Wunderground v.1.15,2013-01-10 20:55:00,
2013-01-10 16:01:00,40.9,29.3,30.46,SSE,155,4.0,6.0,63,0.00,,,0.00,Wunderground v.1.15,2013-01-10 21:01:00,
2013-01-10 16:06:00,40.7,29.1,30.45,ESE,120,4.0,6.0,63,0.00,,,0.00,Wunderground v.1.15,2013-01-10 21:06:00,
2013-01-10 16:12:00,40.6,29.0,30.45,ESE,121,4.0,5.0,63,0.00,,,0.00,Wunderground v.1.15,2013-01-10 21:12:00,
2013-01-10 16:18:00,40.6,29.0,30.45,ESE,120,0.0,5.0,64,0.00,,,0.00,weatherlink.com 1.10,2013-01-10 21:18:00,
2013-01-10 16:23:00,40.4,29.2,30.45,ESE,103,2.0,5.0,64,0.00,,,0.00,Wunderground v.1.15,2013-01-10 21:23:00,
2013-01-10 16:29:00,40.3,29.5,30.44,ESE,114,2.0,4.0,65,0.00,,,0.00,Wunderground v.1.15,2013-01-10 21:29:00,
2013-01-10 16:34:00,40.1,29.3,30.44,SSE,158,3.0,4.0,65,0.00,,,0.00,Wunderground v.1.15,2013-01-10 21:34:00,
2013-01-10 16:40:00,40.0,29.2,30.44,SE,139,4.0,4.0,65,0.00,,,0.00,Wunderground v.1.15,2013-01-10 21:40:00,
2013-01-10 16:46:00,39.8,29.4,30.44,ESE,108,4.0,4.0,66,0.00,,,0.00,Wunderground v.1.15,2013-01-10 21:46:00,
2013-01-10 16:51:00,39.7,29.0,30.43,ENE,57,2.0,6.0,66,0.00,,,0.00,weatherlink.com 1.10,2013-01-10 21:51:00,
2013-01-10 16:56:00,39.6,29.2,30.42,ESE,104,2.0,3.0,66,0.00,,,0.00,Wunderground v.1.15,2013-01-10 21:56:00,
2013-01-10 17:01:00,39.5,29.1,30.43,ESE,106,2.0,2.0,66,0.00,,,0.00,Wunderground v.1.15,2013-01-10 22:01:00,
2013-01-10 17:07:00,39.4,29.0,30.42,ESE,122,1.0,4.0,66,0.00,,,0.00,Wunderground v.1.15,2013-01-10 22:07:00,
2013-01-10 17:12:00,39.3,28.9,30.42,East,82,2.0,5.0,66,0.00,,,0.00,Wunderground v.1.15,2013-01-10 22:12:00,
2013-01-10 17:19:00,39.2,29.2,30.42,ESE,123,2.0,3.0,67,0.00,,,0.00,Wunderground v.1.15,2013-01-10 22:19:00,
2013-01-10 17:24:00,39.1,29.1,30.43,East,87,2.0,6.0,67,0.00,,,0.00,Wunderground v.1.15,2013-01-10 22:24:00,
2013-01-10 17:29:00,39.0,29.0,30.42,East,98,3.0,3.0,67,0.00,,,0.00,Wunderground v.1.15,2013-01-10 22:29:00,
2013-01-10 17:35:00,38.8,28.8,30.42,SE,131,2.0,3.0,67,0.00,,,0.00,Wunderground v.1.15,2013-01-10 22:35:00,
2013-01-10 17:40:00,38.9,28.9,30.41,SE,136,3.0,5.0,67,0.00,,,0.00,Wunderground v.1.15,2013-01-10 22:40:00,
2013-01-10 17:46:00,38.8,29.1,30.42,SE,136,4.0,7.0,68,0.00,,,0.00,Wunderground v.1.15,2013-01-10 22:46:00,
2013-01-10 17:52:00,38.7,29.0,30.42,SE,131,3.0,5.0,68,0.00,,,0.00,Wunderground v.1.15,2013-01-10 22:52:00,
2013-01-10 17:57:00,38.6,28.9,30.42,SSE,155,3.0,5.0,68,0.00,,,0.00,Wunderground v.1.15,2013-01-10 22:57:00,
2013-01-10 18:02:00,38.5,29.2,30.42,SE,131,3.0,4.0,69,0.00,,,0.00,Wunderground v.1.15,2013-01-10 23:02:00,
2013-01-10 18:09:00,38.4,29.1,30.42,ESE,110,2.0,4.0,69,0.00,,,0.00,Wunderground v.1.15,2013-01-10 23:09:00,
2013-01-10 18:14:00,38.4,29.1,30.42,ESE,103,2.0,4.0,69,0.00,,,0.00,Wunderground v.1.15,2013-01-10 23:14:00,
2013-01-10 18:20:00,38.4,29.1,30.42,SE,138,3.0,4.0,69,0.00,,,0.00,Wunderground v.1.15,2013-01-10 23:20:00,
2013-01-10 18:25:00,38.5,29.2,30.42,WSW,256,3.0,5.0,69,0.00,,,0.00,Wunderground v.1.15,2013-01-10 23:25:00,
2013-01-10 18:31:00,38.4,29.5,30.42,ESE,104,3.0,4.0,70,0.00,,,0.00,Wunderground v.1.15,2013-01-10 23:31:00,
2013-01-10 18:36:00,38.4,29.5,30.41,ESE,108,3.0,6.0,70,0.00,,,0.00,Wunderground v.1.15,2013-01-10 23:36:00,
2013-01-10 18:41:00,38.3,29.4,30.40,South,181,4.0,7.0,70,0.00,,,0.00,Wunderground v.1.15,2013-01-10 23:41:00,
2013-01-10 18:47:00,38.3,29.4,30.40,ESE,113,4.0,10.0,70,0.00,,,0.00,Wunderground v.1.15,2013-01-10 23:47:00,
2013-01-10 18:53:00,38.2,29.3,30.40,East,96,4.0,5.0,70,0.00,,,0.00,Wunderground v.1.15,2013-01-10 23:53:00,
2013-01-10 18:59:00,38.2,29.3,30.40,East,87,4.0,4.0,70,0.00,,,0.00,Wunderground v.1.15,2013-01-10 23:59:00,
2013-01-10 19:06:00,38.1,29.0,30.39,SE,136,6.0,9.0,71,0.00,,,0.00,weatherlink.com 1.10,2013-01-11 00:06:00,
2013-01-10 19:21:00,38.1,29.0,30.40,SE,132,4.0,10.0,71,0.00,,,0.00,weatherlink.com 1.10,2013-01-11 00:21:00,
2013-01-10 19:36:00,38.1,29.0,30.39,ENE,73,6.0,8.0,70,0.00,,,0.00,weatherlink.com 1.10,2013-01-11 00:36:00,
2013-01-10 19:51:00,38.3,29.0,30.38,SE,130,2.0,8.0,70,0.00,,,0.00,weatherlink.com 1.10,2013-01-11 00:51:00,
2013-01-10 20:06:00,38.4,29.0,30.37,ENE,63,1.0,8.0,69,0.00,,,0.00,weatherlink.com 1.10,2013-01-11 01:06:00,
2013-01-10 20:21:00,38.5,29.0,30.36,ESE,108,3.0,8.0,68,0.00,,,0.00,weatherlink.com 1.10,2013-01-11 01:21:00,
2013-01-10 20:36:00,38.8,29.0,30.35,SSW,207,1.0,9.0,67,0.00,,,0.00,weatherlink.com 1.10,2013-01-11 01:36:00,
2013-01-10 20:51:00,38.8,28.0,30.35,East,84,4.0,6.0,66,0.00,,,0.00,weatherlink.com 1.10,2013-01-11 01:51:00,
2013-01-10 21:06:00,38.8,29.0,30.34,ESE,121,0.0,9.0,67,0.00,,,0.00,weatherlink.com 1.10,2013-01-11 02:06:00,
2013-01-10 21:21:00,38.8,28.0,30.33,SSE,156,4.0,10.0,66,0.00,,,0.00,weatherlink.com 1.10,2013-01-11 02:21:00,
2013-01-10 21:36:00,39.1,28.0,30.32,ESE,115,1.0,9.0,65,0.00,,,0.00,weatherlink.com 1.10,2013-01-11 02:36:00,
2013-01-10 21:51:00,39.2,28.0,30.31,SE,138,1.0,8.0,64,0.00,,,0.00,weatherlink.com 1.10,2013-01-11 02:51:00,
2013-01-10 22:06:00,39.2,28.0,30.30,ENE,68,3.0,7.0,64,0.00,,,0.00,weatherlink.com 1.10,2013-01-11 03:06:00,
2013-01-10 22:18:00,39.1,27.9,30.29,ESE,118,3.0,5.0,64,0.00,,,0.00,Wunderground v.1.15,2013-01-11 03:18:00,
2013-01-10 22:23:00,39.2,28.0,30.29,SE,139,3.0,7.0,64,0.00,,,0.00,Wunderground v.1.15,2013-01-11 03:23:00,
2013-01-10 22:29:00,39.2,28.4,30.29,SSE,159,3.0,3.0,65,0.00,,,0.00,Wunderground v.1.15,2013-01-11 03:29:00,
2013-01-10 22:35:00,39.1,27.9,30.28,SE,134,3.0,5.0,64,0.00,,,0.00,Wunderground v.1.15,2013-01-11 03:35:00,
2013-01-10 22:40:00,39.2,28.0,30.28,ESE,108,4.0,6.0,64,0.00,,,0.00,Wunderground v.1.15,2013-01-11 03:40:00,
2013-01-10 22:45:00,39.2,28.0,30.27,ESE,112,4.0,6.0,64,0.00,,,0.00,Wunderground v.1.15,2013-01-11 03:45:00,
2013-01-10 22:51:00,39.3,28.1,30.26,ESE,103,4.0,6.0,64,0.00,,,0.00,Wunderground v.1.15,2013-01-11 03:51:00,
2013-01-10 22:56:00,39.4,27.8,30.26,South,176,6.0,8.0,63,0.00,,,0.00,Wunderground v.1.15,2013-01-11 03:56:00,
2013-01-10 23:01:00,39.5,27.5,30.25,SSE,155,6.0,6.0,62,0.00,,,0.00,Wunderground v.1.15,2013-01-11 04:01:00,
2013-01-10 23:08:00,39.6,27.6,30.25,SE,146,5.0,5.0,62,0.00,,,0.00,Wunderground v.1.15,2013-01-11 04:08:00,
2013-01-10 23:13:00,39.7,27.3,30.25,SE,141,5.0,10.0,61,0.00,,,0.00,Wunderground v.1.15,2013-01-11 04:13:00,
2013-01-10 23:18:00,39.7,27.3,30.25,SE,131,4.0,5.0,61,0.00,,,0.00,Wunderground v.1.15,2013-01-11 04:18:00,
2013-01-10 23:23:00,39.8,27.4,30.24,SE,143,4.0,6.0,61,0.00,,,0.00,Wunderground v.1.15,2013-01-11 04:23:00,
2013-01-10 23:28:00,39.9,27.1,30.24,SE,135,4.0,5.0,60,0.00,,,0.00,Wunderground v.1.15,2013-01-11 04:28:00,
2013-01-10 23:34:00,40.1,27.3,30.23,SE,137,4.0,5.0,60,0.00,,,0.00,Wunderground v.1.15,2013-01-11 04:34:00,
2013-01-10 23:40:00,40.4,27.2,30.23,ESE,104,4.0,15.0,59,0.00,,,0.00,Wunderground v.1.15,2013-01-11 04:40:00,
2013-01-10 23:45:00,40.5,27.3,30.23,WNW,284,4.0,15.0,59,0.00,,,0.00,Wunderground v.1.15,2013-01-11 04:45:00,
2013-01-10 23:50:00,40.7,27.5,30.23,ESE,116,3.0,4.0,59,0.00,,,0.00,Wunderground v.1.15,2013-01-11 04:50:00,
2013-01-10 23:56:00,40.7,27.5,30.23,East,101,3.0,12.0,59,0.00,,,0.00,Wunderground v.1.15,2013-01-11 04:56:00,